Time,TemperatureF,DewpointF,PressureIn,WindDirection,WindDirectionDegrees,WindSpeedMPH,WindSpeedGustMPH,Humidity,HourlyPrecipIn,Conditions,Clouds,dailyrainin,SoftwareType,DateUTC
2013-12-27 00:03:00,26.8,16.0,30.13,NE,36,0.0,0.0,65,0.00,,,0.00,weatherlink.com 1.10,2013-12-27 07:03:00,
2013-12-27 00:18:00,25.6,16.0,30.13,NNE,30,0.0,0.0,68,0.00,,,0.00,weatherlink.com 1.10,2013-12-27 07:18:00,
2013-12-27 00:33:00,26.2,16.0,30.12,NNE,19,0.0,1.0,66,0.00,,,0.00,weatherlink.com 1.10,2013-12-27 07:33:00,
2013-12-27 00:48:00,26.1,17.0,30.12,SSE,167,0.0,0.0,68,0.00,,,0.00,weatherlink.com 1.10,2013-12-27 07:48:00,
2013-12-27 01:03:00,25.9,16.0,30.12,SE,130,0.0,0.0,67,0.00,,,0.00,weatherlink.com 1.10,2013-12-27 08:03:00,
2013-12-27 01:18:00,25.0,17.0,30.12,SE,130,0.0,0.0,70,0.00,,,0.00,weatherlink.com 1.10,2013-12-27 08:18:00,
2013-12-27 01:33:00,25.4,17.0,30.11,SE,136,0.0,1.0,69,0.00,,,0.00,weatherlink.com 1.10,2013-12-27 08:33:00,
2013-12-27 01:48:00,25.0,17.0,30.11,SE,141,0.0,1.0,71,0.00,,,0.00,weatherlink.com 1.10,2013-12-27 08:48:00,
2013-12-27 02:03:00,25.0,17.0,30.11,SE,138,0.0,0.0,71,0.00,,,0.00,weatherlink.com 1.10,2013-12-27 09:03:00,
2013-12-27 02:18:00,24.4,17.0,30.12,SE,138,0.0,0.0,73,0.00,,,0.00,weatherlink.com 1.10,2013-12-27 09:18:00,
2013-12-27 02:33:00,22.3,14.0,30.13,NNE,29,0.0,1.0,71,0.00,,,0.00,weatherlink.com 1.10,2013-12-27 09:33:00,
2013-12-27 02:48:00,-999.0,-99.9,30.12,North,-999,-999.0,-999.0,-999,0.00,,,0.00,weatherlink.com 1.10,2013-12-27 09:48:00,
2013-12-27 03:04:00,-999.0,-99.9,30.12,North,-999,-999.0,-999.0,-999,0.00,,,0.00,weatherlink.com 1.10,2013-12-27 10:04:00,
2013-12-27 03:19:00,-999.0,-99.9,30.11,North,-999,-999.0,-999.0,-999,0.00,,,0.00,weatherlink.com 1.10,2013-12-27 10:19:00,
2013-12-27 03:34:00,-999.0,-99.9,30.11,North,-999,-999.0,-999.0,-999,0.00,,,0.00,weatherlink.com 1.10,2013-12-27 10:34:00,
2013-12-27 03:49:00,-999.0,-99.9,30.11,North,-999,-999.0,-999.0,-999,0.00,,,0.00,weatherlink.com 1.10,2013-12-27 10:49:00,
2013-12-27 04:04:00,-999.0,-99.9,30.10,North,-999,-999.0,-999.0,-999,0.00,,,0.00,weatherlink.com 1.10,2013-12-27 11:04:00,
2013-12-27 04:19:00,-999.0,-99.9,30.10,North,-999,-999.0,-999.0,-999,0.00,,,0.00,weatherlink.com 1.10,2013-12-27 11:19:00,
2013-12-27 04:34:00,-999.0,-99.9,30.10,North,-999,-999.0,-999.0,-999,0.00,,,0.00,weatherlink.com 1.10,2013-12-27 11:34:00,
2013-12-27 04:49:00,-999.0,-99.9,30.09,North,-999,-999.0,-999.0,-999,0.00,,,0.00,weatherlink.com 1.10,2013-12-27 11:49:00,
2013-12-27 05:04:00,-999.0,-99.9,30.09,North,-999,-999.0,-999.0,-999,0.00,,,0.00,weatherlink.com 1.10,2013-12-27 12:04:00,
2013-12-27 05:19:00,-999.0,-99.9,30.10,North,-999,-999.0,-999.0,-999,0.00,,,0.00,weatherlink.com 1.10,2013-12-27 12:19:00,
2013-12-27 05:34:00,-999.0,-99.9,30.10,North,-999,-999.0,-999.0,-999,0.00,,,0.00,weatherlink.com 1.10,2013-12-27 12:34:00,
2013-12-27 05:49:00,-999.0,-99.9,30.10,North,-999,-999.0,-999.0,-999,0.00,,,0.00,weatherlink.com 1.10,2013-12-27 12:49:00,
2013-12-27 06:04:00,-999.0,-99.9,30.11,North,-999,-999.0,-999.0,-999,0.00,,,0.00,weatherlink.com 1.10,2013-12-27 13:04:00,
2013-12-27 06:20:00,-999.0,-99.9,30.11,North,-999,-999.0,-999.0,-999,0.00,,,0.00,weatherlink.com 1.10,2013-12-27 13:20:00,
2013-12-27 06:35:00,-999.0,-99.9,30.12,North,-999,-999.0,-999.0,-999,0.00,,,0.00,weatherlink.com 1.10,2013-12-27 13:35:00,
2013-12-27 06:50:00,-999.0,-99.9,30.12,North,-999,-999.0,-999.0,-999,0.00,,,0.00,weatherlink.com 1.10,2013-12-27 13:50:00,
2013-12-27 07:05:00,-999.0,-99.9,30.12,North,-999,-999.0,-999.0,-999,0.00,,,0.00,weatherlink.com 1.10,2013-12-27 14:05:00,
2013-12-27 07:20:00,-999.0,-99.9,30.12,North,-999,-999.0,-999.0,-999,0.00,,,0.00,weatherlink.com 1.10,2013-12-27 14:20:00,
2013-12-27 07:35:00,-999.0,-99.9,30.12,North,-999,-999.0,-999.0,-999,0.00,,,0.00,weatherlink.com 1.10,2013-12-27 14:35:00,
2013-12-27 07:50:00,-999.0,-99.9,30.14,North,-999,-999.0,-999.0,-999,0.00,,,0.00,weatherlink.com 1.10,2013-12-27 14:50:00,
2013-12-27 08:05:00,33.7,20.0,30.14,WSW,255,0.0,0.0,57,0.00,,,0.00,weatherlink.com 1.10,2013-12-27 15:05:00,
2013-12-27 08:20:00,35.2,20.0,30.15,West,271,0.0,0.0,55,0.00,,,0.00,weatherlink.com 1.10,2013-12-27 15:20:00,
2013-12-27 08:35:00,36.4,22.0,30.15,West,267,0.0,0.0,56,0.00,,,0.00,weatherlink.com 1.10,2013-12-27 15:35:00,
2013-12-27 08:50:00,38.0,23.0,30.16,West,270,0.0,0.0,55,0.00,,,0.00,weatherlink.com 1.10,2013-12-27 15:50:00,
2013-12-27 09:05:00,40.1,23.0,30.17,West,277,0.0,0.0,50,0.00,,,0.00,weatherlink.com 1.10,2013-12-27 16:05:00,
2013-12-27 09:20:00,41.7,23.0,30.17,NW,311,0.0,1.0,47,0.00,,,0.00,weatherlink.com 1.10,2013-12-27 16:20:00,
2013-12-27 09:35:00,44.0,23.0,30.17,WNW,300,0.0,0.0,43,0.00,,,0.00,weatherlink.com 1.10,2013-12-27 16:35:00,
2013-12-27 09:50:00,45.7,22.0,30.17,NW,318,0.0,1.0,40,0.00,,,0.00,weatherlink.com 1.10,2013-12-27 16:50:00,
2013-12-27 10:06:00,47.3,23.0,30.17,NNW,328,0.0,0.0,39,0.00,,,0.00,weatherlink.com 1.10,2013-12-27 17:06:00,
2013-12-27 10:21:00,49.2,24.0,30.16,West,260,0.0,1.0,38,0.00,,,0.00,weatherlink.com 1.10,2013-12-27 17:21:00,
2013-12-27 10:36:00,52.1,24.0,30.16,SW,233,0.0,1.0,33,0.00,,,0.00,weatherlink.com 1.10,2013-12-27 17:36:00,
2013-12-27 10:51:00,53.2,23.0,30.15,West,278,0.0,1.0,31,0.00,,,0.00,weatherlink.com 1.10,2013-12-27 17:51:00,
2013-12-27 11:06:00,54.6,23.0,30.14,WNW,297,4.0,8.0,29,0.00,,,0.00,weatherlink.com 1.10,2013-12-27 18:06:00,
2013-12-27 11:21:00,55.8,23.0,30.13,SW,231,5.0,8.0,28,0.00,,,0.00,weatherlink.com 1.10,2013-12-27 18:21:00,
2013-12-27 11:36:00,56.6,24.0,30.11,WSW,251,3.0,9.0,28,0.00,,,0.00,weatherlink.com 1.10,2013-12-27 18:36:00,
2013-12-27 11:51:00,57.5,24.0,30.10,WSW,249,3.0,9.0,27,0.00,,,0.00,weatherlink.com 1.10,2013-12-27 18:51:00,
2013-12-27 12:06:00,57.9,23.0,30.10,WSW,253,7.0,12.0,26,0.00,,,0.00,weatherlink.com 1.10,2013-12-27 19:06:00,
2013-12-27 12:21:00,58.3,24.0,30.09,WSW,249,6.0,10.0,27,0.00,,,0.00,weatherlink.com 1.10,2013-12-27 19:21:00,
2013-12-27 12:36:00,58.2,23.0,30.07,West,269,8.0,14.0,26,0.00,,,0.00,weatherlink.com 1.10,2013-12-27 19:36:00,
2013-12-27 12:51:00,58.3,23.0,30.07,SW,226,6.0,14.0,26,0.00,,,0.00,weatherlink.com 1.10,2013-12-27 19:51:00,
2013-12-27 13:06:00,58.5,24.0,30.06,WNW,291,6.0,12.0,26,0.00,,,0.00,weatherlink.com 1.10,2013-12-27 20:06:00,
2013-12-27 13:21:00,58.5,24.0,30.05,West,273,10.0,13.0,26,0.00,,,0.00,weatherlink.com 1.10,2013-12-27 20:21:00,
2013-12-27 13:36:00,58.7,24.0,30.05,West,269,4.0,13.0,26,0.00,,,0.00,weatherlink.com 1.10,2013-12-27 20:36:00,
2013-12-27 13:51:00,59.1,24.0,30.05,West,268,5.0,13.0,26,0.00,,,0.00,weatherlink.com 1.10,2013-12-27 20:51:00,
2013-12-27 14:06:00,58.7,24.0,30.04,WNW,300,5.0,12.0,26,0.00,,,0.00,weatherlink.com 1.10,2013-12-27 21:06:00,
2013-12-27 14:21:00,58.9,24.0,30.04,West,267,5.0,7.0,26,0.00,,,0.00,weatherlink.com 1.10,2013-12-27 21:21:00,
2013-12-27 14:36:00,59.2,23.0,30.03,WSW,250,5.0,9.0,25,0.00,,,0.00,weatherlink.com 1.10,2013-12-27 21:36:00,
2013-12-27 14:51:00,58.8,23.0,30.03,WNW,287,4.0,9.0,25,0.00,,,0.00,weatherlink.com 1.10,2013-12-27 21:51:00,
2013-12-27 15:06:00,58.2,23.0,30.03,WSW,250,3.0,9.0,26,0.00,,,0.00,weatherlink.com 1.10,2013-12-27 22:06:00,
2013-12-27 15:21:00,57.4,23.0,30.03,WNW,284,5.0,11.0,26,0.00,,,0.00,weatherlink.com 1.10,2013-12-27 22:21:00,
2013-12-27 15:36:00,56.1,22.0,30.02,WSW,249,9.0,9.0,27,0.00,,,0.00,weatherlink.com 1.10,2013-12-27 22:36:00,
2013-12-27 15:51:00,54.9,23.0,30.02,WSW,239,2.0,7.0,29,0.00,,,0.00,weatherlink.com 1.10,2013-12-27 22:51:00,
2013-12-27 16:07:00,53.0,22.0,30.02,WSW,252,4.0,8.0,30,0.00,,,0.00,weatherlink.com 1.10,2013-12-27 23:07:00,
2013-12-27 16:22:00,50.8,22.0,30.02,WSW,239,2.0,5.0,33,0.00,,,0.00,weatherlink.com 1.10,2013-12-27 23:22:00,
2013-12-27 16:37:00,49.1,22.0,30.01,SSW,202,0.0,0.0,35,0.00,,,0.00,weatherlink.com 1.10,2013-12-27 23:37:00,
2013-12-27 16:52:00,47.5,22.0,30.01,SW,231,0.0,0.0,37,0.00,,,0.00,weatherlink.com 1.10,2013-12-27 23:52:00,
2013-12-27 17:07:00,46.1,22.0,30.01,SW,214,0.0,1.0,39,0.00,,,0.00,weatherlink.com 1.10,2013-12-28 00:07:00,
2013-12-27 17:22:00,45.2,21.0,30.00,WSW,245,0.0,0.0,39,0.00,,,0.00,weatherlink.com 1.10,2013-12-28 00:22:00,
2013-12-27 17:37:00,43.9,21.0,30.00,West,271,0.0,0.0,41,0.00,,,0.00,weatherlink.com 1.10,2013-12-28 00:37:00,
2013-12-27 17:52:00,43.4,22.0,30.00,WSW,246,0.0,0.0,42,0.00,,,0.00,weatherlink.com 1.10,2013-12-28 00:52:00,
2013-12-27 18:07:00,42.8,22.0,30.00,West,268,0.0,0.0,43,0.00,,,0.00,weatherlink.com 1.10,2013-12-28 01:07:00,
2013-12-27 18:22:00,42.5,21.0,29.99,West,262,0.0,2.0,43,0.00,,,0.00,weatherlink.com 1.10,2013-12-28 01:22:00,
2013-12-27 18:37:00,40.5,21.0,29.99,WNW,285,0.0,0.0,46,0.00,,,0.00,weatherlink.com 1.10,2013-12-28 01:37:00,
2013-12-27 18:52:00,39.2,21.0,29.99,West,267,0.0,0.0,48,0.00,,,0.00,weatherlink.com 1.10,2013-12-28 01:52:00,
2013-12-27 19:07:00,36.5,21.0,29.99,SSE,149,1.0,5.0,54,0.00,,,0.00,weatherlink.com 1.10,2013-12-28 02:07:00,
2013-12-27 19:22:00,34.1,20.0,29.98,SE,136,0.0,1.0,57,0.00,,,0.00,weatherlink.com 1.10,2013-12-28 02:22:00,
2013-12-27 19:37:00,32.3,20.0,29.98,SE,137,0.0,0.0,61,0.00,,,0.00,weatherlink.com 1.10,2013-12-28 02:37:00,
2013-12-27 19:52:00,31.9,20.0,29.98,South,188,0.0,2.0,63,0.00,,,0.00,weatherlink.com 1.10,2013-12-28 02:52:00,
2013-12-27 20:07:00,30.8,21.0,29.98,South,188,0.0,0.0,66,0.00,,,0.00,weatherlink.com 1.10,2013-12-28 03:07:00,
2013-12-27 20:22:00,30.9,21.0,29.98,SSE,167,0.0,0.0,66,0.00,,,0.00,weatherlink.com 1.10,2013-12-28 03:22:00,
2013-12-27 20:37:00,30.5,21.0,29.97,SSE,153,0.0,0.0,67,0.00,,,0.00,weatherlink.com 1.10,2013-12-28 03:37:00,
2013-12-27 20:52:00,30.9,21.0,29.97,WNW,300,0.0,1.0,66,0.00,,,0.00,weatherlink.com 1.10,2013-12-28 03:52:00,
2013-12-27 21:07:00,32.0,21.0,29.96,WNW,302,0.0,0.0,65,0.00,,,0.00,weatherlink.com 1.10,2013-12-28 04:07:00,
2013-12-27 21:22:00,33.0,22.0,29.95,NW,304,0.0,0.0,64,0.00,,,0.00,weatherlink.com 1.10,2013-12-28 04:22:00,
2013-12-27 21:37:00,32.3,21.0,29.94,SW,232,0.0,0.0,64,0.00,,,0.00,weatherlink.com 1.10,2013-12-28 04:37:00,
2013-12-27 21:52:00,33.0,23.0,29.94,SW,235,0.0,0.0,66,0.00,,,0.00,weatherlink.com 1.10,2013-12-28 04:52:00,
2013-12-27 22:07:00,31.6,21.0,29.94,SW,236,0.0,0.0,66,0.00,,,0.00,weatherlink.com 1.10,2013-12-28 05:07:00,
2013-12-27 22:22:00,31.4,22.0,29.93,WSW,245,0.0,0.0,68,0.00,,,0.00,weatherlink.com 1.10,2013-12-28 05:22:00,
2013-12-27 22:37:00,30.8,22.0,29.93,SW,221,0.0,0.0,70,0.00,,,0.00,weatherlink.com 1.10,2013-12-28 05:37:00,
2013-12-27 22:52:00,33.9,22.0,29.92,SW,215,0.0,1.0,63,0.00,,,0.00,weatherlink.com 1.10,2013-12-28 05:52:00,
2013-12-27 23:07:00,36.1,23.0,29.91,West,263,0.0,0.0,59,0.00,,,0.00,weatherlink.com 1.10,2013-12-28 06:07:00,
2013-12-27 23:22:00,36.6,23.0,29.90,WSW,245,0.0,1.0,58,0.00,,,0.00,weatherlink.com 1.10,2013-12-28 06:22:00,
2013-12-27 23:37:00,36.3,23.0,29.89,West,270,0.0,0.0,58,0.00,,,0.00,weatherlink.com 1.10,2013-12-28 06:37:00,
2013-12-27 23:52:00,36.0,22.0,29.88,SW,226,0.0,1.0,58,0.00,,,0.00,weatherlink.com 1.10,2013-12-28 06:52:00,